owner,sensor,date,latitude,longitude,vertical_datum,sea_water_practical_salinity,qcFlag 
DISL,ioos:station:DISL:BSCA:1,2016-02-01T00:00:00Z,30.3288,-87.8293,2.276,6.12,1111122 
DISL,ioos:station:DISL:BSCA:1,2016-02-01T00:30:00Z,30.3288,-87.8293,2.276,6.12,1111122 
DISL,ioos:station:DISL:BSCA:1,2016-02-01T01:00:00Z,30.3288,-87.8293,2.261,6.14,1111122 
DISL,ioos:station:DISL:BSCA:1,2016-02-01T01:30:00Z,30.3288,-87.8293,2.242,6.13,1111122 
DISL,ioos:station:DISL:BSCA:1,2016-02-01T02:00:00Z,30.3288,-87.8293,2.221,6.15,1111122 
DISL,ioos:station:DISL:BSCA:1,2016-02-01T02:30:00Z,30.3288,-87.8293,2.2,6.25,1111122 
DISL,ioos:station:DISL:BSCA:1,2016-02-01T03:00:00Z,30.3288,-87.8293,2.187,6.25,1111122 
DISL,ioos:station:DISL:BSCA:1,2016-02-01T03:30:00Z,30.3288,-87.8293,2.178,6.25,1111122 
DISL,ioos:station:DISL:BSCA:1,2016-02-01T04:00:00Z,30.3288,-87.8293,2.178,6.25,1111122 
DISL,ioos:station:DISL:BSCA:1,2016-02-01T04:30:00Z,30.3288,-87.8293,2.172,6.25,1111122 
DISL,ioos:station:DISL:BSCA:1,2016-02-01T05:00:00Z,30.3288,-87.8293,2.163,6.27,1111122 
DISL,ioos:station:DISL:BSCA:1,2016-02-01T05:30:00Z,30.3288,-87.8293,2.141,6.31,1111122 
DISL,ioos:station:DISL:BSCA:1,2016-02-01T06:00:00Z,30.3288,-87.8293,2.125,6.6,1111122 
DISL,ioos:station:DISL:BSCA:1,2016-02-01T06:30:00Z,30.3288,-87.8293,2.091,6.46,1111122 
DISL,ioos:station:DISL:BSCA:1,2016-02-01T07:00:00Z,30.3288,-87.8293,2.079,6.45,1111122 
DISL,ioos:station:DISL:BSCA:1,2016-02-01T07:30:00Z,30.3288,-87.8293,2.059,6.43,1111122 
DISL,ioos:station:DISL:BSCA:1,2016-02-01T08:00:00Z,30.3288,-87.8293,2.042,6.72,1111122 
DISL,ioos:station:DISL:BSCA:1,2016-02-01T08:30:00Z,30.3288,-87.8293,2.033,7.52,1111122 
DISL,ioos:station:DISL:BSCA:1,2016-02-01T09:00:00Z,30.3288,-87.8293,2.021,7.51,1111122 
DISL,ioos:station:DISL:BSCA:1,2016-02-01T09:30:00Z,30.3288,-87.8293,2.028,7.63,1111122 
DISL,ioos:station:DISL:BSCA:1,2016-02-01T10:00:00Z,30.3288,-87.8293,2.01,7.58,1111122 
DISL,ioos:station:DISL:BSCA:1,2016-02-01T10:30:00Z,30.3288,-87.8293,2.011,7.48,1111122 
DISL,ioos:station:DISL:BSCA:1,2016-02-01T11:00:00Z,30.3288,-87.8293,2.001,7.39,1111122 
DISL,ioos:station:DISL:BSCA:1,2016-02-01T11:30:00Z,30.3288,-87.8293,2.0,7.16,1111122 
DISL,ioos:station:DISL:BSCA:1,2016-02-01T12:00:00Z,30.3288,-87.8293,1.987,6.91,1111122 
DISL,ioos:station:DISL:BSCA:1,2016-02-01T12:30:00Z,30.3288,-87.8293,1.998,6.86,1111122 
DISL,ioos:station:DISL:BSCA:1,2016-02-01T13:00:00Z,30.3288,-87.8293,1.997,6.97,1111122 
DISL,ioos:station:DISL:BSCA:1,2016-02-01T13:30:00Z,30.3288,-87.8293,2.009,6.92,1111122 
DISL,ioos:station:DISL:BSCA:1,2016-02-01T14:00:00Z,30.3288,-87.8293,2.03,6.91,1111122 
DISL,ioos:station:DISL:BSCA:1,2016-02-01T14:30:00Z,30.3288,-87.8293,2.04,7.07,1111122 
DISL,ioos:station:DISL:BSCA:1,2016-02-01T15:00:00Z,30.3288,-87.8293,2.064,7.0,1111122 
DISL,ioos:station:DISL:BSCA:1,2016-02-01T15:30:00Z,30.3288,-87.8293,2.078,7.03,1111122 
DISL,ioos:station:DISL:BSCA:1,2016-02-01T16:00:00Z,30.3288,-87.8293,2.081,7.07,1111122 
DISL,ioos:station:DISL:BSCA:1,2016-02-01T16:30:00Z,30.3288,-87.8293,2.092,7.07,1111122 
DISL,ioos:station:DISL:BSCA:1,2016-02-01T17:00:00Z,30.3288,-87.8293,2.102,7.09,1111122 
DISL,ioos:station:DISL:BSCA:1,2016-02-01T17:30:00Z,30.3288,-87.8293,2.111,7.12,1111122 
DISL,ioos:station:DISL:BSCA:1,2016-02-01T18:00:00Z,30.3288,-87.8293,2.14,7.12,1111122 
DISL,ioos:station:DISL:BSCA:1,2016-02-01T18:30:00Z,30.3288,-87.8293,2.16,7.13,1111122 
DISL,ioos:station:DISL:BSCA:1,2016-02-01T19:00:00Z,30.3288,-87.8293,2.178,7.16,1111122 
DISL,ioos:station:DISL:BSCA:1,2016-02-01T19:30:00Z,30.3288,-87.8293,2.181,7.26,1111122 
DISL,ioos:station:DISL:BSCA:1,2016-02-01T20:00:00Z,30.3288,-87.8293,2.186,7.32,1111122 
DISL,ioos:station:DISL:BSCA:1,2016-02-01T20:30:00Z,30.3288,-87.8293,2.194,7.44,1111122 
DISL,ioos:station:DISL:BSCA:1,2016-02-01T21:00:00Z,30.3288,-87.8293,2.192,7.33,1111122 
DISL,ioos:station:DISL:BSCA:1,2016-02-01T21:30:00Z,30.3288,-87.8293,2.201,7.31,1111122 
DISL,ioos:station:DISL:BSCA:1,2016-02-01T22:00:00Z,30.3288,-87.8293,2.201,7.15,1111122 
DISL,ioos:station:DISL:BSCA:1,2016-02-01T22:30:00Z,30.3288,-87.8293,2.2,7.18,1111122 
DISL,ioos:station:DISL:BSCA:1,2016-02-01T23:00:00Z,30.3288,-87.8293,2.193,7.84,1111122 
DISL,ioos:station:DISL:BSCA:1,2016-02-01T23:30:00Z,30.3288,-87.8293,2.183,8.05,1111122 
DISL,ioos:station:DISL:BSCA:1,2016-02-02T00:00:00Z,30.3288,-87.8293,2.178,8.04,1111122 
DISL,ioos:station:DISL:BSCA:1,2016-02-02T00:30:00Z,30.3288,-87.8293,2.17,8.03,1111122 
DISL,ioos:station:DISL:BSCA:1,2016-02-02T01:00:00Z,30.3288,-87.8293,2.162,7.94,1111122 
DISL,ioos:station:DISL:BSCA:1,2016-02-02T01:30:00Z,30.3288,-87.8293,2.151,7.82,1111122 
DISL,ioos:station:DISL:BSCA:1,2016-02-02T02:00:00Z,30.3288,-87.8293,2.134,7.6,1111122 
DISL,ioos:station:DISL:BSCA:1,2016-02-02T02:30:00Z,30.3288,-87.8293,2.123,7.38,1111122 
DISL,ioos:station:DISL:BSCA:1,2016-02-02T03:00:00Z,30.3288,-87.8293,2.111,7.35,1111122 
DISL,ioos:station:DISL:BSCA:1,2016-02-02T03:30:00Z,30.3288,-87.8293,2.098,7.24,1111122 
DISL,ioos:station:DISL:BSCA:1,2016-02-02T04:00:00Z,30.3288,-87.8293,2.089,7.24,1111122 
DISL,ioos:station:DISL:BSCA:1,2016-02-02T04:30:00Z,30.3288,-87.8293,2.068,7.21,1111122 
DISL,ioos:station:DISL:BSCA:1,2016-02-02T05:00:00Z,30.3288,-87.8293,2.044,7.19,1111122 
DISL,ioos:station:DISL:BSCA:1,2016-02-02T05:30:00Z,30.3288,-87.8293,2.033,7.22,1111122 
DISL,ioos:station:DISL:BSCA:1,2016-02-02T06:00:00Z,30.3288,-87.8293,2.011,7.24,1111122 
DISL,ioos:station:DISL:BSCA:1,2016-02-02T06:30:00Z,30.3288,-87.8293,2.0,7.24,1111122 
DISL,ioos:station:DISL:BSCA:1,2016-02-02T07:00:00Z,30.3288,-87.8293,1.995,7.24,1111122 
DISL,ioos:station:DISL:BSCA:1,2016-02-02T07:30:00Z,30.3288,-87.8293,1.99,7.18,1111122 
DISL,ioos:station:DISL:BSCA:1,2016-02-02T08:00:00Z,30.3288,-87.8293,1.974,7.21,1111122 
DISL,ioos:station:DISL:BSCA:1,2016-02-02T08:30:00Z,30.3288,-87.8293,1.97,7.22,1111122 
DISL,ioos:station:DISL:BSCA:1,2016-02-02T09:00:00Z,30.3288,-87.8293,1.954,7.2,1111122 
DISL,ioos:station:DISL:BSCA:1,2016-02-02T09:30:00Z,30.3288,-87.8293,1.947,7.21,1111122 
DISL,ioos:station:DISL:BSCA:1,2016-02-02T10:00:00Z,30.3288,-87.8293,1.949,7.22,1111122 
DISL,ioos:station:DISL:BSCA:1,2016-02-02T10:30:00Z,30.3288,-87.8293,1.944,7.24,1111122 
DISL,ioos:station:DISL:BSCA:1,2016-02-02T11:00:00Z,30.3288,-87.8293,1.96,7.25,1111122 
DISL,ioos:station:DISL:BSCA:1,2016-02-02T11:30:00Z,30.3288,-87.8293,1.962,7.26,1111122 
DISL,ioos:station:DISL:BSCA:1,2016-02-02T12:00:00Z,30.3288,-87.8293,1.986,7.3,1111122 
DISL,ioos:station:DISL:BSCA:1,2016-02-02T12:30:00Z,30.3288,-87.8293,2.001,7.39,1111122 
DISL,ioos:station:DISL:BSCA:1,2016-02-02T13:00:00Z,30.3288,-87.8293,2.016,7.48,1111122 
DISL,ioos:station:DISL:BSCA:1,2016-02-02T13:30:00Z,30.3288,-87.8293,2.039,7.53,1111122 
DISL,ioos:station:DISL:BSCA:1,2016-02-02T14:00:00Z,30.3288,-87.8293,2.05,7.51,1111122 
DISL,ioos:station:DISL:BSCA:1,2016-02-02T14:30:00Z,30.3288,-87.8293,2.08,7.53,1111122 
DISL,ioos:station:DISL:BSCA:1,2016-02-02T15:00:00Z,30.3288,-87.8293,2.1,7.56,1111122 
DISL,ioos:station:DISL:BSCA:1,2016-02-02T15:30:00Z,30.3288,-87.8293,2.134,7.52,1111122 
DISL,ioos:station:DISL:BSCA:1,2016-02-02T16:00:00Z,30.3288,-87.8293,2.157,7.48,1111122 
DISL,ioos:station:DISL:BSCA:1,2016-02-02T16:30:00Z,30.3288,-87.8293,2.182,7.44,1111122 
DISL,ioos:station:DISL:BSCA:1,2016-02-02T17:00:00Z,30.3288,-87.8293,2.189,7.43,1111122 
DISL,ioos:station:DISL:BSCA:1,2016-02-02T17:30:00Z,30.3288,-87.8293,2.226,7.43,1111122 
DISL,ioos:station:DISL:BSCA:1,2016-02-02T18:00:00Z,30.3288,-87.8293,2.228,7.44,1111122 
DISL,ioos:station:DISL:BSCA:1,2016-02-02T18:30:00Z,30.3288,-87.8293,2.155,7.46,1111122 
DISL,ioos:station:DISL:BSCA:1,2016-02-02T19:00:00Z,30.3288,-87.8293,2.265,7.45,1111122 
DISL,ioos:station:DISL:BSCA:1,2016-02-02T19:30:00Z,30.3288,-87.8293,2.299,7.44,1111122 
DISL,ioos:station:DISL:BSCA:1,2016-02-02T20:00:00Z,30.3288,-87.8293,2.326,7.45,1111122 
DISL,ioos:station:DISL:BSCA:1,2016-02-02T20:30:00Z,30.3288,-87.8293,2.361,7.41,1111122 
DISL,ioos:station:DISL:BSCA:1,2016-02-02T21:00:00Z,30.3288,-87.8293,2.335,7.37,1111122 
DISL,ioos:station:DISL:BSCA:1,2016-02-02T21:30:00Z,30.3288,-87.8293,2.345,7.3,1111122 
DISL,ioos:station:DISL:BSCA:1,2016-02-02T22:00:00Z,30.3288,-87.8293,2.376,7.29,1111122 
DISL,ioos:station:DISL:BSCA:1,2016-02-02T22:30:00Z,30.3288,-87.8293,2.42,7.26,1111122 
DISL,ioos:station:DISL:BSCA:1,2016-02-02T23:00:00Z,30.3288,-87.8293,2.432,7.17,1111122 
DISL,ioos:station:DISL:BSCA:1,2016-02-02T23:30:00Z,30.3288,-87.8293,2.448,7.14,1111122 
DISL,ioos:station:DISL:BSCA:1,2016-02-03T00:00:00Z,30.3288,-87.8293,2.428,7.11,1111122 
DISL,ioos:station:DISL:BSCA:1,2016-02-03T00:30:00Z,30.3288,-87.8293,2.433,7.09,1111122 
DISL,ioos:station:DISL:BSCA:1,2016-02-03T01:00:00Z,30.3288,-87.8293,2.422,7.06,1111122 
DISL,ioos:station:DISL:BSCA:1,2016-02-03T01:30:00Z,30.3288,-87.8293,2.417,7.04,1111122 
DISL,ioos:station:DISL:BSCA:1,2016-02-03T02:00:00Z,30.3288,-87.8293,2.481,7.02,1111122 
DISL,ioos:station:DISL:BSCA:1,2016-02-03T02:30:00Z,30.3288,-87.8293,2.409,6.99,1111122 
DISL,ioos:station:DISL:BSCA:1,2016-02-03T03:00:00Z,30.3288,-87.8293,2.405,6.98,1111122 
DISL,ioos:station:DISL:BSCA:1,2016-02-03T03:30:00Z,30.3288,-87.8293,2.386,6.96,1111122 
DISL,ioos:station:DISL:BSCA:1,2016-02-03T04:00:00Z,30.3288,-87.8293,2.332,6.95,1111122 
DISL,ioos:station:DISL:BSCA:1,2016-02-03T04:30:00Z,30.3288,-87.8293,2.351,6.95,1111122 
DISL,ioos:station:DISL:BSCA:1,2016-02-03T05:00:00Z,30.3288,-87.8293,2.319,6.95,1111122 
DISL,ioos:station:DISL:BSCA:1,2016-02-03T05:30:00Z,30.3288,-87.8293,2.293,6.95,1111122 
DISL,ioos:station:DISL:BSCA:1,2016-02-03T06:00:00Z,30.3288,-87.8293,2.266,6.98,1111122 
DISL,ioos:station:DISL:BSCA:1,2016-02-03T06:30:00Z,30.3288,-87.8293,2.216,7.04,1111122 
DISL,ioos:station:DISL:BSCA:1,2016-02-03T07:00:00Z,30.3288,-87.8293,2.247,7.16,1111122 
DISL,ioos:station:DISL:BSCA:1,2016-02-03T07:30:00Z,30.3288,-87.8293,2.105,7.27,1111122 
DISL,ioos:station:DISL:BSCA:1,2016-02-03T08:00:00Z,30.3288,-87.8293,2.148,7.3,1111122 
DISL,ioos:station:DISL:BSCA:1,2016-02-03T08:30:00Z,30.3288,-87.8293,2.135,7.33,1111122 
DISL,ioos:station:DISL:BSCA:1,2016-02-03T09:00:00Z,30.3288,-87.8293,2.128,7.38,1111122 
DISL,ioos:station:DISL:BSCA:1,2016-02-03T09:30:00Z,30.3288,-87.8293,2.117,7.6,1111122 
DISL,ioos:station:DISL:BSCA:1,2016-02-03T10:00:00Z,30.3288,-87.8293,2.1,7.66,1111122 
DISL,ioos:station:DISL:BSCA:1,2016-02-03T10:30:00Z,30.3288,-87.8293,2.065,7.68,1111122 
DISL,ioos:station:DISL:BSCA:1,2016-02-03T11:00:00Z,30.3288,-87.8293,2.051,7.68,1111122 
DISL,ioos:station:DISL:BSCA:1,2016-02-03T11:30:00Z,30.3288,-87.8293,2.048,7.65,1111122 
DISL,ioos:station:DISL:BSCA:1,2016-02-03T12:00:00Z,30.3288,-87.8293,2.092,7.64,1111122 
DISL,ioos:station:DISL:BSCA:1,2016-02-03T12:30:00Z,30.3288,-87.8293,2.159,7.41,1111122 
DISL,ioos:station:DISL:BSCA:1,2016-02-03T13:00:00Z,30.3288,-87.8293,2.189,7.46,1111122 
DISL,ioos:station:DISL:BSCA:1,2016-02-03T13:30:00Z,30.3288,-87.8293,2.192,7.42,1111122 
DISL,ioos:station:DISL:BSCA:1,2016-02-03T14:00:00Z,30.3288,-87.8293,2.072,7.35,1111122 
DISL,ioos:station:DISL:BSCA:1,2016-02-03T14:30:00Z,30.3288,-87.8293,1.997,7.32,1111122 
DISL,ioos:station:DISL:BSCA:1,2016-02-03T15:00:00Z,30.3288,-87.8293,1.894,7.32,1111122 
DISL,ioos:station:DISL:BSCA:1,2016-02-03T15:30:00Z,30.3288,-87.8293,1.905,7.32,1111122 
DISL,ioos:station:DISL:BSCA:1,2016-02-03T16:00:00Z,30.3288,-87.8293,1.927,7.31,1111122 
DISL,ioos:station:DISL:BSCA:1,2016-02-03T16:30:00Z,30.3288,-87.8293,1.997,7.29,1111122 
DISL,ioos:station:DISL:BSCA:1,2016-02-03T17:00:00Z,30.3288,-87.8293,2.054,7.28,1111122 
DISL,ioos:station:DISL:BSCA:1,2016-02-03T17:30:00Z,30.3288,-87.8293,2.074,7.27,1111122 
DISL,ioos:station:DISL:BSCA:1,2016-02-03T18:00:00Z,30.3288,-87.8293,2.105,7.28,1111122 
DISL,ioos:station:DISL:BSCA:1,2016-02-03T18:30:00Z,30.3288,-87.8293,2.083,7.29,1111122 
DISL,ioos:station:DISL:BSCA:1,2016-02-03T19:00:00Z,30.3288,-87.8293,2.122,7.26,1111122 
DISL,ioos:station:DISL:BSCA:1,2016-02-03T19:30:00Z,30.3288,-87.8293,2.134,7.28,1111122 
DISL,ioos:station:DISL:BSCA:1,2016-02-03T20:00:00Z,30.3288,-87.8293,2.184,7.28,1111122 
DISL,ioos:station:DISL:BSCA:1,2016-02-03T20:30:00Z,30.3288,-87.8293,2.217,7.28,1111122 
DISL,ioos:station:DISL:BSCA:1,2016-02-03T21:00:00Z,30.3288,-87.8293,2.236,7.28,1111122 
DISL,ioos:station:DISL:BSCA:1,2016-02-03T21:30:00Z,30.3288,-87.8293,2.277,7.27,1111122 
DISL,ioos:station:DISL:BSCA:1,2016-02-03T22:00:00Z,30.3288,-87.8293,2.312,7.58,1111122 
DISL,ioos:station:DISL:BSCA:1,2016-02-03T22:30:00Z,30.3288,-87.8293,2.338,7.46,1111122 
DISL,ioos:station:DISL:BSCA:1,2016-02-03T23:00:00Z,30.3288,-87.8293,2.365,7.52,1111122 
DISL,ioos:station:DISL:BSCA:1,2016-02-03T23:30:00Z,30.3288,-87.8293,2.385,7.85,1111122 
DISL,ioos:station:DISL:BSCA:1,2016-02-04T00:00:00Z,30.3288,-87.8293,2.409,7.8,1111122 
DISL,ioos:station:DISL:BSCA:1,2016-02-04T00:30:00Z,30.3288,-87.8293,2.413,7.92,1111122 
DISL,ioos:station:DISL:BSCA:1,2016-02-04T01:00:00Z,30.3288,-87.8293,2.428,8.79,1111122 
DISL,ioos:station:DISL:BSCA:1,2016-02-04T01:30:00Z,30.3288,-87.8293,2.444,8.32,1111122 
DISL,ioos:station:DISL:BSCA:1,2016-02-04T02:00:00Z,30.3288,-87.8293,2.431,8.93,1111122 
DISL,ioos:station:DISL:BSCA:1,2016-02-04T02:30:00Z,30.3288,-87.8293,2.414,9.11,1111122 
DISL,ioos:station:DISL:BSCA:1,2016-02-04T03:00:00Z,30.3288,-87.8293,2.389,9.22,1111122 
DISL,ioos:station:DISL:BSCA:1,2016-02-04T03:30:00Z,30.3288,-87.8293,2.372,9.24,1111122 
DISL,ioos:station:DISL:BSCA:1,2016-02-04T04:00:00Z,30.3288,-87.8293,2.337,9.33,1111122 
DISL,ioos:station:DISL:BSCA:1,2016-02-04T04:30:00Z,30.3288,-87.8293,2.281,9.32,1111122 
DISL,ioos:station:DISL:BSCA:1,2016-02-04T05:00:00Z,30.3288,-87.8293,2.223,9.15,1111122 
DISL,ioos:station:DISL:BSCA:1,2016-02-04T05:30:00Z,30.3288,-87.8293,2.179,9.51,1111122 
DISL,ioos:station:DISL:BSCA:1,2016-02-04T06:00:00Z,30.3288,-87.8293,2.149,9.57,1111122 
DISL,ioos:station:DISL:BSCA:1,2016-02-04T06:30:00Z,30.3288,-87.8293,2.156,9.62,1111122 
DISL,ioos:station:DISL:BSCA:1,2016-02-04T07:00:00Z,30.3288,-87.8293,2.169,10.34,1111122 
DISL,ioos:station:DISL:BSCA:1,2016-02-04T07:30:00Z,30.3288,-87.8293,2.133,8.39,1111122 
DISL,ioos:station:DISL:BSCA:1,2016-02-04T08:00:00Z,30.3288,-87.8293,2.098,8.31,1111122 
DISL,ioos:station:DISL:BSCA:1,2016-02-04T08:30:00Z,30.3288,-87.8293,2.038,8.23,1111122 
DISL,ioos:station:DISL:BSCA:1,2016-02-04T09:00:00Z,30.3288,-87.8293,2.008,8.31,1111122 
DISL,ioos:station:DISL:BSCA:1,2016-02-04T09:30:00Z,30.3288,-87.8293,1.927,8.29,1111122 
DISL,ioos:station:DISL:BSCA:1,2016-02-04T10:00:00Z,30.3288,-87.8293,1.88,8.19,1111122 
DISL,ioos:station:DISL:BSCA:1,2016-02-04T10:30:00Z,30.3288,-87.8293,1.796,8.13,1111122 
DISL,ioos:station:DISL:BSCA:1,2016-02-04T11:00:00Z,30.3288,-87.8293,1.784,8.04,1111122 
DISL,ioos:station:DISL:BSCA:1,2016-02-04T11:30:00Z,30.3288,-87.8293,1.787,8.07,1111122 
DISL,ioos:station:DISL:BSCA:1,2016-02-04T12:00:00Z,30.3288,-87.8293,1.758,8.39,1111122 
DISL,ioos:station:DISL:BSCA:1,2016-02-04T12:30:00Z,30.3288,-87.8293,1.747,8.42,1111122 
DISL,ioos:station:DISL:BSCA:1,2016-02-04T13:00:00Z,30.3288,-87.8293,1.782,8.41,1111122 
DISL,ioos:station:DISL:BSCA:1,2016-02-04T13:30:00Z,30.3288,-87.8293,1.756,8.57,1111122 
DISL,ioos:station:DISL:BSCA:1,2016-02-04T14:00:00Z,30.3288,-87.8293,1.775,8.58,1111122 
DISL,ioos:station:DISL:BSCA:1,2016-02-04T14:30:00Z,30.3288,-87.8293,1.786,8.63,1111122 
DISL,ioos:station:DISL:BSCA:1,2016-02-04T15:00:00Z,30.3288,-87.8293,1.793,8.65,1111122 
DISL,ioos:station:DISL:BSCA:1,2016-02-04T15:30:00Z,30.3288,-87.8293,1.813,8.72,1111122 
DISL,ioos:station:DISL:BSCA:1,2016-02-04T16:00:00Z,30.3288,-87.8293,1.829,8.74,1111122 
DISL,ioos:station:DISL:BSCA:1,2016-02-04T16:30:00Z,30.3288,-87.8293,1.866,8.81,1111122 
DISL,ioos:station:DISL:BSCA:1,2016-02-04T17:00:00Z,30.3288,-87.8293,1.88,8.82,1111122 
DISL,ioos:station:DISL:BSCA:1,2016-02-04T17:30:00Z,30.3288,-87.8293,1.927,8.91,1111122 
DISL,ioos:station:DISL:BSCA:1,2016-02-04T18:00:00Z,30.3288,-87.8293,1.917,8.9,1111122 
DISL,ioos:station:DISL:BSCA:1,2016-02-04T18:30:00Z,30.3288,-87.8293,1.958,8.84,1111122 
DISL,ioos:station:DISL:BSCA:1,2016-02-04T19:00:00Z,30.3288,-87.8293,1.971,8.78,1111122 
DISL,ioos:station:DISL:BSCA:1,2016-02-04T19:30:00Z,30.3288,-87.8293,2.014,8.77,1111122 
DISL,ioos:station:DISL:BSCA:1,2016-02-04T20:00:00Z,30.3288,-87.8293,2.059,8.68,1111122 
DISL,ioos:station:DISL:BSCA:1,2016-02-04T20:30:00Z,30.3288,-87.8293,2.117,8.77,1111122 
DISL,ioos:station:DISL:BSCA:1,2016-02-04T21:00:00Z,30.3288,-87.8293,2.116,9.27,1111122 
DISL,ioos:station:DISL:BSCA:1,2016-02-04T21:30:00Z,30.3288,-87.8293,2.236,8.75,1111122 
DISL,ioos:station:DISL:BSCA:1,2016-02-04T22:00:00Z,30.3288,-87.8293,2.181,8.83,1111122 
DISL,ioos:station:DISL:BSCA:1,2016-02-04T22:30:00Z,30.3288,-87.8293,2.121,9.1,1111122 
DISL,ioos:station:DISL:BSCA:1,2016-02-04T23:00:00Z,30.3288,-87.8293,2.18,8.83,1111122 
DISL,ioos:station:DISL:BSCA:1,2016-02-04T23:30:00Z,30.3288,-87.8293,2.151,8.89,1111122 
DISL,ioos:station:DISL:BSCA:1,2016-02-05T00:00:00Z,30.3288,-87.8293,2.129,8.89,1111122 
DISL,ioos:station:DISL:BSCA:1,2016-02-05T00:30:00Z,30.3288,-87.8293,2.166,8.99,1111122 
DISL,ioos:station:DISL:BSCA:1,2016-02-05T01:00:00Z,30.3288,-87.8293,2.119,9.08,1111122 
DISL,ioos:station:DISL:BSCA:1,2016-02-05T01:30:00Z,30.3288,-87.8293,2.16,8.87,1111122 
DISL,ioos:station:DISL:BSCA:1,2016-02-05T02:00:00Z,30.3288,-87.8293,2.122,8.91,1111122 
DISL,ioos:station:DISL:BSCA:1,2016-02-05T02:30:00Z,30.3288,-87.8293,2.066,9.09,1111122 
DISL,ioos:station:DISL:BSCA:1,2016-02-05T03:00:00Z,30.3288,-87.8293,2.115,9.04,1111122 
DISL,ioos:station:DISL:BSCA:1,2016-02-05T03:30:00Z,30.3288,-87.8293,2.013,8.78,1111122 
DISL,ioos:station:DISL:BSCA:1,2016-02-05T04:00:00Z,30.3288,-87.8293,1.997,8.77,1111122 
DISL,ioos:station:DISL:BSCA:1,2016-02-05T04:30:00Z,30.3288,-87.8293,2.043,8.64,1111122 
DISL,ioos:station:DISL:BSCA:1,2016-02-05T05:00:00Z,30.3288,-87.8293,1.987,8.72,1111122 
DISL,ioos:station:DISL:BSCA:1,2016-02-05T05:30:00Z,30.3288,-87.8293,1.927,8.62,1111122 
DISL,ioos:station:DISL:BSCA:1,2016-02-05T06:00:00Z,30.3288,-87.8293,1.889,8.57,1111122 
DISL,ioos:station:DISL:BSCA:1,2016-02-05T06:30:00Z,30.3288,-87.8293,1.841,8.76,1111122 
DISL,ioos:station:DISL:BSCA:1,2016-02-05T07:00:00Z,30.3288,-87.8293,1.805,8.96,1111122 
DISL,ioos:station:DISL:BSCA:1,2016-02-05T07:30:00Z,30.3288,-87.8293,1.767,9.09,1111122 
DISL,ioos:station:DISL:BSCA:1,2016-02-05T08:00:00Z,30.3288,-87.8293,1.742,9.1,1111122 
DISL,ioos:station:DISL:BSCA:1,2016-02-05T08:30:00Z,30.3288,-87.8293,1.711,9.2,1111122 
DISL,ioos:station:DISL:BSCA:1,2016-02-05T09:00:00Z,30.3288,-87.8293,1.666,9.23,1111122 
DISL,ioos:station:DISL:BSCA:1,2016-02-05T09:30:00Z,30.3288,-87.8293,1.621,9.18,1111122 
DISL,ioos:station:DISL:BSCA:1,2016-02-05T10:00:00Z,30.3288,-87.8293,1.587,9.15,1111122 
DISL,ioos:station:DISL:BSCA:1,2016-02-05T10:30:00Z,30.3288,-87.8293,1.563,9.18,1111122 
DISL,ioos:station:DISL:BSCA:1,2016-02-05T11:00:00Z,30.3288,-87.8293,1.544,9.19,1111122 
DISL,ioos:station:DISL:BSCA:1,2016-02-05T11:30:00Z,30.3288,-87.8293,1.552,9.19,1111122 
DISL,ioos:station:DISL:BSCA:1,2016-02-05T12:00:00Z,30.3288,-87.8293,1.546,9.2,1111122 
DISL,ioos:station:DISL:BSCA:1,2016-02-05T12:30:00Z,30.3288,-87.8293,1.553,9.18,1111122 
DISL,ioos:station:DISL:BSCA:1,2016-02-05T13:00:00Z,30.3288,-87.8293,1.546,9.13,1111122 
DISL,ioos:station:DISL:BSCA:1,2016-02-05T13:30:00Z,30.3288,-87.8293,1.54,9.09,1111122 
DISL,ioos:station:DISL:BSCA:1,2016-02-05T14:00:00Z,30.3288,-87.8293,1.541,9.06,1111122 
DISL,ioos:station:DISL:BSCA:1,2016-02-05T14:30:00Z,30.3288,-87.8293,1.566,9.04,1111122 
DISL,ioos:station:DISL:BSCA:1,2016-02-05T15:00:00Z,30.3288,-87.8293,1.592,9.04,1111122 
DISL,ioos:station:DISL:BSCA:1,2016-02-05T15:30:00Z,30.3288,-87.8293,1.598,9.03,1111122 
DISL,ioos:station:DISL:BSCA:1,2016-02-05T16:00:00Z,30.3288,-87.8293,1.625,9.03,1111122 
DISL,ioos:station:DISL:BSCA:1,2016-02-05T16:30:00Z,30.3288,-87.8293,1.63,9.04,1111122 
DISL,ioos:station:DISL:BSCA:1,2016-02-05T17:00:00Z,30.3288,-87.8293,1.653,9.04,1111122 
DISL,ioos:station:DISL:BSCA:1,2016-02-05T17:30:00Z,30.3288,-87.8293,1.684,9.03,1111122 
DISL,ioos:station:DISL:BSCA:1,2016-02-05T18:00:00Z,30.3288,-87.8293,1.712,9.02,1111122 
DISL,ioos:station:DISL:BSCA:1,2016-02-05T18:30:00Z,30.3288,-87.8293,1.734,9.04,1111122 
DISL,ioos:station:DISL:BSCA:1,2016-02-05T19:00:00Z,30.3288,-87.8293,1.781,9.12,1111122 
DISL,ioos:station:DISL:BSCA:1,2016-02-05T19:30:00Z,30.3288,-87.8293,1.819,9.14,1111122 
DISL,ioos:station:DISL:BSCA:1,2016-02-05T20:00:00Z,30.3288,-87.8293,1.847,9.15,1111122 
DISL,ioos:station:DISL:BSCA:1,2016-02-05T20:30:00Z,30.3288,-87.8293,1.882,9.15,1111122 
DISL,ioos:station:DISL:BSCA:1,2016-02-05T21:00:00Z,30.3288,-87.8293,1.898,9.14,1111122 
DISL,ioos:station:DISL:BSCA:1,2016-02-05T21:30:00Z,30.3288,-87.8293,1.947,8.96,1111122 
DISL,ioos:station:DISL:BSCA:1,2016-02-05T22:00:00Z,30.3288,-87.8293,1.947,8.91,1111122 
DISL,ioos:station:DISL:BSCA:1,2016-02-05T22:30:00Z,30.3288,-87.8293,1.994,8.92,1111122 
DISL,ioos:station:DISL:BSCA:1,2016-02-05T23:00:00Z,30.3288,-87.8293,2.011,8.94,1111122 
DISL,ioos:station:DISL:BSCA:1,2016-02-05T23:30:00Z,30.3288,-87.8293,2.009,8.88,1111122 
DISL,ioos:station:DISL:BSCA:1,2016-02-06T00:00:00Z,30.3288,-87.8293,1.992,8.96,1111122 
DISL,ioos:station:DISL:BSCA:1,2016-02-06T00:30:00Z,30.3288,-87.8293,1.995,9.05,1111122 
DISL,ioos:station:DISL:BSCA:1,2016-02-06T01:00:00Z,30.3288,-87.8293,1.983,9.17,1111122 
DISL,ioos:station:DISL:BSCA:1,2016-02-06T01:30:00Z,30.3288,-87.8293,1.976,9.23,1111122 
DISL,ioos:station:DISL:BSCA:1,2016-02-06T02:00:00Z,30.3288,-87.8293,1.975,9.26,1111122 
DISL,ioos:station:DISL:BSCA:1,2016-02-06T02:30:00Z,30.3288,-87.8293,1.973,9.28,1111122 
DISL,ioos:station:DISL:BSCA:1,2016-02-06T03:00:00Z,30.3288,-87.8293,1.972,9.27,1111122 
DISL,ioos:station:DISL:BSCA:1,2016-02-06T03:30:00Z,30.3288,-87.8293,1.963,9.27,1111122 
DISL,ioos:station:DISL:BSCA:1,2016-02-06T04:00:00Z,30.3288,-87.8293,1.958,9.2,1111122 
DISL,ioos:station:DISL:BSCA:1,2016-02-06T04:30:00Z,30.3288,-87.8293,1.944,8.93,1111122 
DISL,ioos:station:DISL:BSCA:1,2016-02-06T05:00:00Z,30.3288,-87.8293,1.921,9.08,1111122 
DISL,ioos:station:DISL:BSCA:1,2016-02-06T05:30:00Z,30.3288,-87.8293,1.888,9.09,1111122 
DISL,ioos:station:DISL:BSCA:1,2016-02-06T06:00:00Z,30.3288,-87.8293,1.86,9.0,1111122 
DISL,ioos:station:DISL:BSCA:1,2016-02-06T06:30:00Z,30.3288,-87.8293,1.821,9.03,1111122 
DISL,ioos:station:DISL:BSCA:1,2016-02-06T07:00:00Z,30.3288,-87.8293,1.778,9.03,1111122 
DISL,ioos:station:DISL:BSCA:1,2016-02-06T07:30:00Z,30.3288,-87.8293,1.754,9.08,1111122 
DISL,ioos:station:DISL:BSCA:1,2016-02-06T08:00:00Z,30.3288,-87.8293,1.722,9.09,1111122 
DISL,ioos:station:DISL:BSCA:1,2016-02-06T08:30:00Z,30.3288,-87.8293,1.684,9.09,1111122 
DISL,ioos:station:DISL:BSCA:1,2016-02-06T09:00:00Z,30.3288,-87.8293,1.645,9.08,1111122 
DISL,ioos:station:DISL:BSCA:1,2016-02-06T09:30:00Z,30.3288,-87.8293,1.624,9.05,1111122 
DISL,ioos:station:DISL:BSCA:1,2016-02-06T10:00:00Z,30.3288,-87.8293,1.598,9.02,1111122 
DISL,ioos:station:DISL:BSCA:1,2016-02-06T10:30:00Z,30.3288,-87.8293,1.578,9.02,1111122 
DISL,ioos:station:DISL:BSCA:1,2016-02-06T11:00:00Z,30.3288,-87.8293,1.572,9.02,1111122 
DISL,ioos:station:DISL:BSCA:1,2016-02-06T11:30:00Z,30.3288,-87.8293,1.572,9.02,1111122 
DISL,ioos:station:DISL:BSCA:1,2016-02-06T12:00:00Z,30.3288,-87.8293,1.57,9.02,1111122 
DISL,ioos:station:DISL:BSCA:1,2016-02-06T12:30:00Z,30.3288,-87.8293,1.566,9.03,1111122 
DISL,ioos:station:DISL:BSCA:1,2016-02-06T13:00:00Z,30.3288,-87.8293,1.56,9.04,1111122 
DISL,ioos:station:DISL:BSCA:1,2016-02-06T13:30:00Z,30.3288,-87.8293,1.575,9.04,1111122 
DISL,ioos:station:DISL:BSCA:1,2016-02-06T14:00:00Z,30.3288,-87.8293,1.578,9.04,1111122 
DISL,ioos:station:DISL:BSCA:1,2016-02-06T14:30:00Z,30.3288,-87.8293,1.59,9.04,1111122 
DISL,ioos:station:DISL:BSCA:1,2016-02-06T15:00:00Z,30.3288,-87.8293,1.595,9.05,1111122 
DISL,ioos:station:DISL:BSCA:1,2016-02-06T15:30:00Z,30.3288,-87.8293,1.612,9.06,1111122 